Holland, MI

3:32 PM EDT on May 23, 2018 (GMT -0400)
Tulip City

Weather History for KBIV - October, 2012

Change the Weather History Date:

Saturday, October 6, 2012

  Actual Average Record
Temperature  
Mean Temperature 48 °F 56 °F  
Max Temperature 51 °F 66 °F 84 °F (2007)
Min Temperature 45 °F 46 °F 28 °F (2003)
Degree Days  
Heating Degree Days 17 10  
Month to date heating degree days 47 55  
Since 1 July heating degree days 188 185  
Cooling Degree Days 0 1  
Month to date cooling degree days 4 6  
Year to date cooling degree days 1063 688  
Moisture  
Dew Point 33 °F    
Average Humidity 62    
Maximum Humidity 76    
Minimum Humidity 48    
Precipitation  
Precipitation 0.02 in 0.09 in 1.15 in (1959)
Month to date precipitation 0.48 0.59  
Year to date precipitation 22.98 27.70  
Sea Level Pressure  
Sea Level Pressure 30.05 in    
Wind  
Wind Speed 8 mph (WNW)    
Max Wind Speed 17 mph    
Max Gust Speed 25 mph    
Visibility 10 miles    
Events Rain    
T = Trace of Precipitation, MM = Missing Value Source: NWS Daily Summary

Daily Weather History Graph

Daily Weather History Graph

Search for Another Location

Airport or City:

Astronomy

Oct. 06, 2012 Rise Set
Actual Time 7:47 AM EDT 7:16 PM EDT
Civil Twilight 7:19 AM EDT 7:44 PM EDT
Nautical Twilight 6:46 AM EDT 8:17 PM EDT
Astronomical Twilight 6:13 AM EDT 8:49 PM EDT
Moon 11:25 PM EDT (10/6) 1:48 PM EDT (10/6)
Length of Visible Light 12h 24m
Length of Day
11h 28m
Waning Gibbous, 65% of the Moon is Illuminated
Oct 6
Waning Gibbous
Oct 8
Last Quarter
Oct 15
New
Oct 21
First Quarter
Oct 29
Full

Hourly Weather History & Observations

Time (EDT) Temp. Windchill Dew Point Humidity Pressure Visibility Wind Dir Wind Speed Gust Speed Precip Events Conditions
12:53 AM 51.1 °F - 32.0 °F 48% 29.93 in 10.0 mi WNW 5.8 mph - N/A   Overcast
1:53 AM 51.1 °F - 33.1 °F 50% 29.92 in 10.0 mi West 9.2 mph - N/A   Overcast
2:53 AM 50.0 °F - 32.0 °F 50% 29.98 in 10.0 mi WNW 10.4 mph 20.7 mph N/A   Overcast
3:53 AM 50.0 °F - 32.0 °F 50% 29.96 in 10.0 mi West 10.4 mph 19.6 mph N/A   Overcast
4:53 AM 48.0 °F - 32.0 °F 54% 29.98 in 10.0 mi WNW 12.7 mph 20.7 mph N/A   Overcast
5:53 AM 46.9 °F - 30.0 °F 52% 29.99 in 10.0 mi WNW 10.4 mph 21.9 mph N/A   Overcast
6:53 AM 46.9 °F - 30.0 °F 52% 29.94 in 10.0 mi WNW 11.5 mph 25.3 mph N/A   Overcast
7:53 AM 46.9 °F - 30.0 °F 52% 30.02 in 10.0 mi West 15.0 mph 24.2 mph N/A   Overcast
8:53 AM 46.0 °F 40.6 °F 32.0 °F 58% 30.04 in 10.0 mi West 11.5 mph 17.3 mph N/A   Overcast
9:53 AM 46.9 °F - 30.9 °F 54% 30.06 in 10.0 mi WNW 8.1 mph 17.3 mph N/A   Overcast
10:53 AM 45.0 °F 40.1 °F 35.1 °F 68% 30.06 in 10.0 mi West 9.2 mph 21.9 mph 0.01 in Rain Light Rain
11:53 AM 46.9 °F - 35.1 °F 63% 30.07 in 10.0 mi NW 6.9 mph - 0.01 in   Overcast
12:53 PM 48.0 °F - 35.1 °F 61% 30.08 in 10.0 mi NW 11.5 mph 16.1 mph 0.00 in   Overcast
1:53 PM 48.0 °F - 35.1 °F 61% 30.08 in 10.0 mi Variable 5.8 mph - 0.00 in Rain Light Rain
2:53 PM 48.0 °F - 34.0 °F 58% 30.09 in 10.0 mi NW 9.2 mph - 0.00 in   Overcast
3:53 PM 48.9 °F - 33.1 °F 54% 30.09 in 10.0 mi NW 8.1 mph 18.4 mph N/A   Overcast
4:53 PM 48.0 °F - 32.0 °F 54% 30.09 in 10.0 mi NW 8.1 mph - N/A   Overcast
5:53 PM 48.0 °F - 30.9 °F 52% 30.11 in 10.0 mi NW 4.6 mph - N/A   Overcast
6:53 PM 48.0 °F - 30.9 °F 52% 30.12 in 10.0 mi NW 5.8 mph - N/A   Overcast
7:53 PM 46.9 °F - 34.0 °F 61% 30.13 in 10.0 mi Calm Calm - N/A   Overcast
8:53 PM 46.0 °F - 36.0 °F 68% 30.14 in 10.0 mi Calm Calm - N/A   Overcast
9:53 PM 45.0 °F - 37.9 °F 76% 30.14 in 10.0 mi Calm Calm - N/A   Overcast
10:53 PM 45.0 °F - 36.0 °F 71% 30.14 in 10.0 mi Calm Calm - N/A   Overcast
11:53 PM 46.0 °F - 34.0 °F 63% 30.15 in 10.0 mi Calm Calm - N/A   Overcast